DW9161 Weather Reports


time (UTC)temp
C
wind
direction
speed
KPH
gust
KPH
rain 1hr
cm
rain 24hr
cm
rain mn
cm
humidity
%
barometer
mb
20260906181036 31 203 4.8 11.3 0.00 0.03 0.03 68 1015.4
20260906180608 31 196 6.4 11.3 0.00 0.03 0.03 69 1015.5
20260906180044 31 158 1.6 11.3 0.00 0.03 0.03 69 1015.5
20260906175540 31 207 3.2 9.7 0.00 0.03 0.03 72 1015.6
20260906175036 30 176 1.6 8.0 0.00 0.03 0.03 71 1015.6
20260906174552 30 127 3.2 12.9 0.00 0.03 0.03 71 1015.7
20260906174046 30 127 4.8 12.9 0.00 0.03 0.03 70 1015.9
20260906173542 30 196 4.8 8.0 0.03 0.03 0.03 71 1015.9
20260906173041 30 216 4.8 11.3 0.03 0.03 0.03 71 1015.8
20260906172537 30 211 6.4 16.1 0.03 0.03 0.03 72 1015.9
20260906172032 30 196 8.0 16.1 0.03 0.03 0.03 72 1016.0
20260906171546 30 199 6.4 14.5 0.03 0.03 0.03 71 1016.0
20260906171042 30 230 6.4 11.3 0.03 0.03 0.03 74 1016.0
20260906170550 30 184 3.2 14.5 0.03 0.03 0.03 73 1016.1
20260906170047 29 199 8.0 14.5 0.03 0.03 0.03 75 1016.2
20260906165543 29 205 3.2 8.0 0.03 0.03 0.03 78 1016.1
20260906165038 28 198 3.2 6.4 0.03 0.03 0.03 80 1016.2
20260906164535 28 158 3.2 6.4 0.03 0.03 0.03 81 1016.3
20260906164030 28 240 1.6 4.8 0.03 0.03 0.03 82 1016.3
20260906163548 27 262 1.6 4.8 0.00 0.00 0.00 82 1016.3
20260906163043 27 264 1.6 4.8 0.00 0.00 0.00 83 1016.5
20260906162541 27 270 1.6 3.2 0.00 0.00 0.00 84 1016.6
20260906162037 27 271 1.6 3.2 0.00 0.00 0.00 86 1016.7
20260906161533 26 271 0.0 3.2 0.00 0.00 0.00 87 1016.7
20260906161034 26 271 0.0 4.8 0.00 0.00 0.00 88 1016.7
20260906160607 26 271 1.6 4.8 0.00 0.00 0.00 89 1016.7
20260906160043 26 271 1.6 4.8 0.00 0.00 0.00 88 1016.8
20260906155535 26 271 0.0 6.4 0.00 0.00 0.00 88 1016.9
20260906155032 26 271 1.6 9.7 0.00 0.00 0.00 87 1016.8
20260906154548 26 273 3.2 9.7 0.00 0.00 0.00 87 1017.1
20260906154045 26 260 0.0 12.9 0.00 0.00 0.00 86 1016.8
20260906153541 26 262 6.4 12.9 0.00 0.00 0.00 86 1017.0
20260906153036 27 218 3.2 6.4 0.00 0.00 0.00 85 1016.6
20260906152531 27 215 0.0 3.2 0.00 0.00 0.00 85 1016.3
20260906152048 27 215 0.0 3.2 0.00 0.00 0.00 84 1016.2
20260906151543 27 215 1.6 9.7 0.00 0.00 0.00 83 1016.2
20260906151038 27 215 1.6 9.7 0.00 0.00 0.00 82 1016.2
20260906150632 27 203 3.2 8.0 0.00 0.00 0.00 81 1016.2
20260906150044 27 205 3.2 8.0 0.00 0.00 0.00 80 1016.2
20260906145539 27 193 3.2 8.0 0.00 0.00 0.00 81 1016.1
20260906145033 27 183 3.2 8.0 0.00 0.00 0.00 81 1016.1
20260906144530 27 212 3.2 4.8 0.00 0.00 0.00 81 1016.0
20260906144046 27 201 3.2 4.8 0.00 0.00 0.00 82 1016.0
20260906143542 27 201 3.2 6.4 0.00 0.00 0.00 82 1016.0
20260906143039 27 203 3.2 6.4 0.00 0.00 0.00 82 1016.0
20260906142533 27 170 1.6 4.8 0.00 0.00 0.00 83 1016.2
20260906142050 27 171 1.6 6.4 0.00 0.00 0.00 83 1016.2
20260906141546 26 171 3.2 6.4 0.00 0.00 0.00 83 1016.2
20260906141045 26 171 1.6 3.2 0.00 0.00 0.00 84 1016.3
20260906140552 26 171 1.6 3.2 0.00 0.00 0.00 84 1016.3
20260906140049 26 171 1.6 4.8 0.00 0.00 0.00 84 1016.4
20260906135545 26 171 1.6 4.8 0.00 0.00 0.00 84 1016.4
20260906135041 26 171 1.6 4.8 0.00 0.00 0.00 84 1016.4
20260906134536 26 171 1.6 6.4 0.00 0.00 0.00 84 1016.3
20260906134032 26 172 1.6 6.4 0.00 0.00 0.00 84 1016.3
20260906133548 26 173 3.2 6.4 0.00 0.00 0.00 85 1016.2
20260906133044 26 174 3.2 6.4 0.00 0.00 0.00 85 1016.2
20260906132540 26 172 3.2 4.8 0.00 0.00 0.00 86 1016.2
20260906132037 25 157 1.6 4.8 0.00 0.00 0.00 86 1016.2
20260906131533 25 157 1.6 3.2 0.00 0.00 0.00 87 1016.2
20260906131050 25 157 1.6 4.8 0.00 0.00 0.00 87 1016.2
20260906130558 25 153 1.6 4.8 0.00 0.00 0.00 87 1016.3
20260906130034 25 153 3.2 4.8 0.00 0.00 0.00 87 1016.2
20260906125530 25 153 1.6 8.0 0.00 0.00 0.00 87 1016.2
20260906125046 25 153 1.6 8.0 0.00 0.00 0.00 87 1016.1
20260906124603 25 155 1.6 4.8 0.00 0.00 0.00 86 1016.0
20260906124043 25 155 1.6 4.8 0.00 0.00 0.00 86 1016.0
20260906123537 25 155 1.6 4.8 0.00 0.00 0.00 86 1015.9
20260906123033 25 155 1.6 6.4 0.00 0.00 0.00 86 1015.8
20260906122548 25 155 3.2 6.4 0.00 0.00 0.00 86 1015.7
20260906122107 25 155 3.2 4.8 0.00 0.00 0.00 86 1015.7
20260906121540 25 155 1.6 4.8 0.00 0.00 0.00 86 1015.6
20260906121037 25 155 1.6 4.8 0.00 0.00 0.00 86 1015.6
20260906120631 25 155 1.6 4.8 0.00 0.00 0.00 86 1015.6
20260906120043 25 155 1.6 4.8 0.00 0.00 0.00 86 1015.5
20260906115538 25 155 1.6 4.8 0.00 0.00 0.00 86 1015.4
20260906115033 25 155 1.6 4.8 0.00 0.00 0.00 86 1015.2
20260906114549 25 155 1.6 4.8 0.00 0.00 0.00 86 1015.2
20260906114046 25 155 3.2 4.8 0.00 0.00 0.00 85 1015.2
20260906113541 25 155 1.6 4.8 0.00 0.00 0.00 85 1015.1
20260906112534 25 155 1.6 4.8 0.00 0.00 0.00 85 1015.2
20260906112049 25 155 1.6 4.8 0.00 0.00 0.00 85 1015.2
20260906111546 25 155 0.0 3.2 0.00 0.00 0.00 85 1015.4
20260906111042 25 155 0.0 3.2 0.00 0.00 0.00 85 1015.5
20260906110549 25 155 1.6 3.2 0.00 0.00 0.00 85 1015.4
20260906110045 25 155 1.6 3.2 0.00 0.00 0.00 85 1015.3
20260906105545 25 155 1.6 3.2 0.00 0.00 0.00 84 1015.2
20260906105043 25 155 1.6 4.8 0.00 0.00 0.00 84 1015.2
20260906104539 25 155 1.6 4.8 0.00 0.00 0.00 84 1015.1
20260906104034 25 155 1.6 4.8 0.00 0.00 0.00 84 1015.1
20260906103529 25 155 1.6 4.8 0.00 0.00 0.00 84 1014.9
20260906103107 25 155 1.6 4.8 0.00 0.00 0.00 84 1014.9
20260906102604 25 155 1.6 4.8 0.00 0.00 0.00 84 1014.9
20260906102037 25 155 1.6 4.8 0.00 0.00 0.00 84 1014.9
20260906101533 25 155 1.6 4.8 0.00 0.00 0.00 84 1014.8
20260906101030 25 155 1.6 4.8 0.00 0.00 0.00 84 1014.8
20260906100625 25 155 3.2 4.8 0.00 0.00 0.00 84 1014.8
20260906100100 25 155 1.6 4.8 0.00 0.00 0.00 83 1014.8
20260906095534 25 155 1.6 4.8 0.00 0.00 0.00 83 1014.9
20260906095030 26 155 1.6 4.8 0.00 0.00 0.00 83 1014.8
20260906094609 26 155 3.2 4.8 0.00 0.00 0.00 83 1014.8
20260906094043 26 155 1.6 4.8 0.00 0.00 0.00 83 1014.8
20260906093559 26 155 3.2 4.8 0.00 0.00 0.00 83 1014.9
20260906093054 26 155 1.6 3.2 0.00 0.00 0.00 83 1014.9
20260906092549 26 155 0.0 3.2 0.00 0.00 0.00 83 1014.9
20260906092106 26 155 0.0 3.2 0.00 0.00 0.00 83 1014.9
20260906091539 26 155 0.0 3.2 0.00 0.00 0.00 83 1014.8
20260906091036 26 155 1.6 3.2 0.00 0.00 0.00 83 1014.8
20260906090608 26 155 1.6 3.2 0.00 0.00 0.00 82 1014.8
20260906090106 26 155 1.6 3.2 0.00 0.00 0.00 82 1014.7
20260906085540 26 155 1.6 3.2 0.00 0.00 0.00 82 1014.8
20260906085056 26 155 1.6 3.2 0.00 0.00 0.00 82 1014.9
20260906084531 26 155 1.6 3.2 0.00 0.00 0.00 82 1014.8
20260906084046 26 155 1.6 4.8 0.00 0.00 0.00 82 1014.8
20260906083543 26 155 3.2 4.8 0.00 0.00 0.00 82 1014.7
20260906083042 26 155 3.2 4.8 0.00 0.00 0.00 82 1014.7
20260906082558 26 155 3.2 4.8 0.00 0.00 0.00 82 1014.6
20260906082052 26 155 3.2 4.8 0.00 0.00 0.00 82 1014.6
20260906081547 26 155 1.6 4.8 0.00 0.00 0.00 81 1014.7
20260906081042 26 155 1.6 3.2 0.00 0.00 0.00 81 1014.6
20260906080549 26 154 1.6 4.8 0.00 0.00 0.00 81 1014.6
20260906080045 26 154 3.2 4.8 0.00 0.00 0.00 81 1014.6
20260906075543 26 154 3.2 4.8 0.00 0.00 0.00 81 1014.5
20260906075038 26 154 3.2 4.8 0.00 0.00 0.00 81 1014.4
20260906074534 26 154 3.2 6.4 0.00 0.00 0.00 80 1014.5
20260906074030 26 154 3.2 6.4 0.00 0.00 0.00 80 1014.5
20260906073546 26 154 3.2 4.8 0.00 0.00 0.00 80 1014.4
20260906073042 26 154 3.2 6.4 0.00 0.00 0.00 80 1014.5
20260906072536 26 154 3.2 6.4 0.00 0.00 0.00 80 1014.6
20260906072032 26 155 3.2 4.8 0.00 0.00 0.00 80 1014.6
20260906071547 26 155 3.2 6.4 0.00 0.00 0.00 80 1014.6
20260906071044 26 155 3.2 6.4 0.00 0.00 0.00 80 1014.7
20260906070552 26 155 3.2 4.8 0.00 0.00 0.00 80 1014.7
20260906070050 26 154 3.2 4.8 0.00 0.00 0.00 80 1014.7
20260906065544 26 154 3.2 4.8 0.00 0.00 0.00 80 1014.8
20260906065040 26 154 3.2 4.8 0.00 0.00 0.00 80 1014.8
20260906064556 27 154 3.2 4.8 0.00 0.00 0.00 80 1014.8
20260906064030 27 154 3.2 4.8 0.00 0.00 0.00 80 1014.9
20260906063546 27 154 3.2 4.8 0.00 0.00 0.00 80 1014.9
20260906063045 27 154 3.2 4.8 0.00 0.00 0.00 80 1015.0
20260906062601 27 154 1.6 4.8 0.00 0.00 0.00 80 1015.0
20260906062055 27 154 3.2 4.8 0.00 0.00 0.00 80 1015.0
20260906061608 27 154 3.2 4.8 0.00 0.00 0.00 80 1014.9
20260906061046 27 154 3.2 4.8 0.00 0.00 0.00 79 1014.9
20260906060555 27 154 3.2 6.4 0.00 0.00 0.00 79 1014.9
20260906060033 27 154 3.2 8.0 0.00 0.00 0.00 79 1014.9
20260906055547 27 154 3.2 8.0 0.00 0.00 0.00 78 1014.8
20260906055044 27 154 4.8 6.4 0.00 0.00 0.00 78 1014.9
20260906054559 27 155 3.2 6.4 0.00 0.00 0.00 78 1014.9
20260906054033 27 160 4.8 6.4 0.00 0.00 0.00 78 1014.8
20260906053548 27 160 3.2 6.4 0.00 0.00 0.00 78 1014.8
20260906053044 27 160 3.2 6.4 0.00 0.00 0.00 78 1014.8
20260906052540 27 160 4.8 6.4 0.00 0.00 0.00 78 1014.9
20260906052037 27 162 3.2 6.4 0.00 0.00 0.00 78 1014.9
20260906051533 27 162 3.2 6.4 0.00 0.00 0.00 77 1014.9
20260906051051 27 162 4.8 6.4 0.00 0.00 0.00 78 1014.9
20260906050557 27 165 3.2 6.4 0.00 0.00 0.00 77 1015.0
20260906050030 27 165 3.2 6.4 0.00 0.00 0.00 77 1015.0
20260906045538 27 165 3.2 4.8 0.00 0.00 0.00 76 1014.9
20260906045048 28 165 3.2 6.4 0.00 0.00 0.00 76 1015.0
20260906044543 28 165 3.2 6.4 0.00 0.00 0.00 75 1015.0
20260906044038 28 165 3.2 6.4 0.00 0.00 0.00 75 1015.0
20260906043534 28 166 4.8 6.4 0.00 0.00 0.00 75 1014.9
20260906043049 28 167 3.2 4.8 0.00 0.00 0.00 76 1015.0
20260906042546 28 167 3.2 6.4 0.00 0.00 0.00 76 1015.0
20260906042044 28 167 3.2 6.4 0.00 0.00 0.00 75 1015.1
20260906041535 28 167 3.2 6.4 0.00 0.00 0.00 76 1015.0
20260906041113 28 167 3.2 6.4 0.00 0.00 0.00 76 1015.0
20260906040558 28 170 4.8 6.4 0.00 0.00 0.00 76 1015.0
20260906040038 28 171 3.2 6.4 0.00 0.00 0.00 76 1015.0
20260906035556 28 171 3.2 6.4 0.00 0.00 0.00 76 1015.0
20260906035033 28 171 4.8 4.8 0.00 0.00 0.00 75 1014.9
20260906034551 28 171 3.2 4.8 0.00 0.00 0.00 75 1015.0
20260906034050 28 171 3.2 4.8 0.00 0.00 0.00 75 1015.0
20260906033532 28 171 3.2 4.8 0.00 0.00 0.00 75 1014.8
20260906033050 28 171 3.2 6.4 0.00 0.00 0.00 75 1014.8
20260906032547 28 171 3.2 6.4 0.00 0.00 0.00 75 1014.8
20260906032108 28 172 3.2 6.4 0.00 0.00 0.00 75 1014.8
20260906031545 28 172 3.2 6.4 0.00 0.00 0.00 75 1014.6
20260906031044 28 172 3.2 6.4 0.00 0.00 0.00 75 1014.5
20260906030551 28 172 3.2 6.4 0.00 0.00 0.00 75 1014.4
20260906030031 28 172 3.2 6.4 0.00 0.00 0.00 75 1014.2
20260906025549 29 172 3.2 6.4 0.00 0.00 0.00 75 1014.2
20260906025047 29 173 3.2 6.4 0.00 0.00 0.00 75 1014.1
20260906024606 29 174 3.2 6.4 0.00 0.00 0.00 75 1014.2
20260906024103 29 176 3.2 6.4 0.00 0.00 0.00 75 1014.1
20260906023539 29 179 4.8 6.4 0.00 0.00 0.00 75 1014.0
20260906023050 29 186 3.2 6.4 0.00 0.00 0.00 75 1014.1
20260906022544 29 188 1.6 4.8 0.00 0.00 0.00 75 1014.1
20260906022103 29 188 3.2 4.8 0.00 0.00 0.00 75 1014.0
20260906021537 29 188 3.2 6.4 0.00 0.00 0.00 75 1013.8
20260906021054 29 190 3.2 6.4 0.00 0.00 0.00 75 1013.7
20260906020605 29 191 3.2 4.8 0.00 0.00 0.00 75 1013.5
20260906020039 29 191 3.2 4.8 0.00 0.00 0.00 75 1013.5
20260906015537 29 191 1.6 4.8 0.00 0.00 0.00 74 1013.4
20260906015102 30 191 3.2 4.8 0.00 0.00 0.00 74 1013.4
20260906014544 30 191 3.2 4.8 0.00 0.00 0.00 74 1013.3
20260906014036 30 191 1.6 4.8 0.00 0.00 0.00 74 1013.3
20260906013548 30 191 1.6 4.8 0.00 0.00 0.00 74 1013.1
20260906013034 30 191 1.6 4.8 0.00 0.00 0.00 73 1013.2
20260906012543 30 191 1.6 3.2 0.00 0.00 0.00 73 1013.1
20260906012054 30 191 1.6 4.8 0.00 0.00 0.00 73 1013.1
20260906011548 30 191 3.2 4.8 0.00 0.00 0.00 72 1013.0
20260906011050 30 191 1.6 4.8 0.00 0.00 0.00 72 1012.9
20260906010611 30 191 1.6 4.8 0.00 0.00 0.00 72 1012.9
20260906010039 30 191 1.6 4.8 0.00 0.00 0.00 72 1012.9
20260906005535 30 191 1.6 4.8 0.00 0.00 0.00 71 1012.8
20260906005049 30 191 1.6 3.2 0.00 0.00 0.00 71 1012.9
20260906004540 31 191 1.6 4.8 0.00 0.00 0.00 70 1012.9
20260906004053 31 191 3.2 4.8 0.00 0.00 0.00 70 1012.8
20260906003548 31 191 1.6 4.8 0.00 0.00 0.00 70 1012.8
20260906003035 31 191 3.2 4.8 0.00 0.00 0.00 70 1012.8
20260906002556 31 191 3.2 4.8 0.00 0.00 0.00 69 1012.7
20260906002057 31 191 1.6 4.8 0.00 0.00 0.00 68 1012.7
20260906001610 32 191 3.2 4.8 0.00 0.00 0.00 68 1012.7
20260906001045 32 193 3.2 4.8 0.00 0.00 0.00 68 1012.8
20260906000628 32 193 1.6 6.4 0.00 0.00 0.00 67 1012.7
20260906000036 32 193 3.2 6.4 0.00 0.00 0.00 66 1012.8
20260905235548 32 195 3.2 4.8 0.00 0.00 0.00 66 1012.8
20260905235044 32 195 1.6 4.8 0.00 0.00 0.00 66 1012.7
20260905234536 32 195 1.6 4.8 0.00 0.00 0.00 66 1012.8
20260905234100 32 195 3.2 6.4 0.00 0.00 0.00 64 1012.7
20260905233543 33 198 1.6 6.4 0.00 0.00 0.00 65 1012.7
20260905233035 33 178 3.2 6.4 0.00 0.00 0.00 64 1012.8
20260905232541 33 178 3.2 6.4 0.00 0.00 0.00 63 1012.7
20260905232034 33 184 3.2 6.4 0.00 0.00 0.00 63 1012.7
20260905231550 33 189 3.2 4.8 0.00 0.00 0.00 63 1012.7
20260905231051 33 190 1.6 4.8 0.00 0.00 0.00 63 1012.6
20260905230605 33 190 1.6 6.4 0.00 0.00 0.00 63 1012.6
20260905230053 33 190 1.6 6.4 0.00 0.00 0.00 63 1012.7
20260905225540 33 195 3.2 8.0 0.00 0.00 0.00 62 1012.6
20260905225052 33 161 3.2 6.4 0.00 0.00 0.00 62 1012.6
20260905224537 33 173 1.6 8.0 0.00 0.00 0.00 63 1012.5
20260905224048 33 217 1.6 8.0 0.00 0.00 0.00 63 1012.5
20260905223553 33 106 3.2 6.4 0.00 0.00 0.00 62 1012.4
20260905223110 33 105 3.2 8.0 0.00 0.00 0.00 62 1012.4
20260905222540 33 120 3.2 8.0 0.00 0.00 0.00 62 1012.3
20260905222037 33 127 3.2 8.0 0.00 0.00 0.00 63 1012.3
20260905221543 33 132 3.2 6.4 0.00 0.00 0.00 62 1012.1
20260905221038 33 133 3.2 6.4 0.00 0.00 0.00 63 1012.1
20260905220616 33 133 3.2 8.0 0.00 0.00 0.00 62 1012.1
20260905220034 32 106 3.2 8.0 0.00 0.00 0.00 62 1012.2
20260905215543 33 106 3.2 9.7 0.00 0.00 0.00 62 1012.4
20260905215039 32 106 4.8 9.7 0.00 0.00 0.00 62 1012.4
20260905214615 32 82 3.2 9.7 0.00 0.00 0.00 62 1012.5
20260905214058 33 113 4.8 9.7 0.00 0.00 0.00 61 1012.5
20260905213557 33 139 3.2 9.7 0.00 0.00 0.00 60 1012.5
20260905213106 33 139 4.8 9.7 0.00 0.00 0.00 59 1012.6
20260905212543 33 122 3.2 8.0 0.00 0.00 0.00 61 1012.7
20260905212051 33 124 3.2 8.0 0.00 0.00 0.00 61 1012.9
20260905211535 33 169 3.2 8.0 0.00 0.00 0.00 59 1012.9
20260905211039 33 230 4.8 8.0 0.00 0.00 0.00 58 1013.1
20260905210613 33 184 3.2 6.4 0.00 0.00 0.00 59 1013.1
20260905210046 33 120 3.2 6.4 0.00 0.00 0.00 58 1013.2
20260905205540 33 131 3.2 6.4 0.00 0.00 0.00 59 1013.3
20260905205053 33 160 1.6 9.7 0.00 0.00 0.00 58 1013.4
20260905204544 33 160 3.2 9.7 0.00 0.00 0.00 58 1013.4
20260905204104 33 102 3.2 8.0 0.00 0.00 0.00 58 1013.5
20260905203548 33 115 1.6 4.8 0.00 0.00 0.00 58 1013.7
20260905203034 33 115 1.6 9.7 0.00 0.00 0.00 58 1013.9
20260905202600 33 114 3.2 6.4 0.00 0.00 0.00 57 1014.0
20260905202038 33 97 3.2 8.0 0.00 0.00 0.00 58 1014.1
20260905201536 33 89 3.2 6.4 0.00 0.00 0.00 60 1014.3
20260905201042 33 102 1.6 6.4 0.00 0.00 0.00 58 1014.5
20260905200555 32 102 1.6 6.4 0.00 0.00 0.00 59 1014.6
20260905200040 32 103 3.2 6.4 0.00 0.00 0.00 59 1014.6
20260905195549 32 88 1.6 8.0 0.00 0.00 0.00 60 1014.7
20260905195109 32 357 4.8 8.0 0.00 0.00 0.00 60 1014.7
20260905194558 32 97 3.2 6.4 0.00 0.00 0.00 58 1014.7
20260905194043 32 165 1.6 6.4 0.00 0.00 0.00 58 1014.8
20260905193536 32 314 3.2 6.4 0.00 0.00 0.00 56 1014.7
20260905193047 32 359 1.6 6.4 0.00 0.00 0.00 60 1014.8
20260905192606 32 360 1.6 8.0 0.00 0.00 0.00 60 1014.8
20260905192038 32 112 4.8 8.0 0.00 0.00 0.00 60 1015.0
20260905191544 32 116 3.2 9.7 0.00 0.00 0.00 60 1015.1
20260905191036 32 103 6.4 9.7 0.00 0.00 0.00 59 1015.2
20260905190612 32 358 3.2 9.7 0.00 0.00 0.00 60 1015.4
20260905190056 32 110 4.8 9.7 0.00 0.00 0.00 63 1015.4
20260905185537 32 62 3.2 9.7 0.00 0.00 0.00 62 1015.5
20260905185152 32 94 3.2 9.7 0.00 0.00 0.00 64 1015.8
20260905184549 32 2 3.2 14.5 0.00 0.00 0.00 65 1015.9
20260905184041 32 84 3.2 14.5 0.00 0.00 0.00 63 1016.0
20260905183608 32 18 3.2 11.3 0.00 0.00 0.00 64 1016.0
20260905183047 32 15 1.6 14.5 0.00 0.00 0.00 64 1016.1
20260905182547 31 53 4.8 14.5 0.00 0.00 0.00 67 1016.2
20260905182035 31 358 4.8 14.5 0.00 0.00 0.00 67 1016.2
20260905181541 31 344 4.8 14.5 0.00 0.00 0.00 67 1016.3